Hlavní strana
METAR-TAF:

METAR-TAF

Letiště :

Mount Carmel Municipal Airport

Mount Carmel, Illinois, Spojené státy americké

zeměpisná šířka: 38-36-23N, zeměpisná délka: 087-43-36W, výška: 131 m

Aktuální stav počasí

Zpráva byla vytvořena před 26 minutami, v 02:35 UTC
Východní vítr 5 kt
Teplota 7°C
Vlhkost vzduchu 81%
Tlak 1023 hPa
Viditelnost: 16.1 km
Jasno

METAR: KAJG 240235Z AUTO 08005KT 10SM CLR 07/04 A3022 RMK AO2 T00720037

Čas: 22:01 (03:01 UTC)


TAF: chybějící

Stav a předpovědi počasí z více než 4 000 letišť (zprávy METAR a TAF).

Červené a žluté tečky na mapě představují dostupné meteorologické stanice.

Když kurzor umístíte na tečku, zobrazí se název stanice.

Pak kliknutím zobrazíte stav a předpověď počasí.

Chcete-li změnit mapu, kliknutím na zelené tlačítko se znaménkem +mapu přiblížíte, kliknutím na zelené tlačítko se znaménkem – mapu oddálíte a kliknutím na zelené šipky přejdete na sousední mapy.


METAR-TAF: